Tracking 23645 objects as of 21-Sep-2021
HD Live streaming from Space Station
objects crossing your sky now

PALAPA 2

Track PALAPA 2 now!
PALAPA 2 is classified as:


NORAD ID: 9862
Int'l Code: 1977-018A
Perigee: 35,831.7 km
Apogee: 35,877.0 km
Inclination: 12.0 °
Period: 1,439.2 minutes
Semi major axis: 42225 km
RCS: 5.6864 m2 (large)
Launch date: March 10, 1977
Source: Indonesia (INDO)
Launch site: AIR FORCE EASTERN TEST RANGE (AFETR)
aabbcc
Your satellite tracking list
Your tracking list is empty




NASA's NSSDC Master Catalog

Two Line Element Set (TLE):
1 09862U 77018A   21264.37967017 -.00000096  00000-0  00000-0 0  9999
2 09862  12.0017 324.3269 0005360 105.0979  64.4721  1.00056033125800
Source of the keplerian elements: AFSPC